| time (UTC) | temp C | wind direction | speed KPH | gust KPH | rain 1hr cm | rain 24hr cm | rain mn cm | humidity % | barometer mb |
| 20260506180057 | 17 | 286 | 0.0 | 8.0 | 0.00 | 0.00 | 0.00 | 75 | 1020.7 |
| 20260506174532 | 16 | 279 | 0.0 | 11.3 | 0.00 | 0.00 | 0.00 | 74 | 1020.8 |
| 20260506173102 | 16 | 300 | 0.0 | 8.0 | 0.00 | 0.00 | 0.00 | 75 | 1020.8 |
| 20260506171554 | 15 | 65 | 0.0 | 1.6 | 0.00 | 0.00 | 0.00 | 75 | 1020.9 |
| 20260506170024 | 15 | 63 | 0.0 | 6.4 | 0.00 | 0.00 | 0.00 | 74 | 1021.0 |
| 20260506164552 | 14 | 306 | 0.0 | 0.0 | 0.00 | 0.00 | 0.00 | 74 | 1021.0 |
| 20260506163024 | 13 | 96 | 0.0 | 0.0 | 0.00 | 0.00 | 0.00 | 62 | 1021.1 |
| 20260506161605 | 13 | 100 | 0.0 | 0.0 | 0.00 | 0.00 | 0.00 | 49 | 1021.1 |
| 20260506160044 | 12 | 107 | 0.0 | 0.0 | 0.00 | 0.00 | 0.00 | 36 | 1021.1 |
| 20260506154523 | 12 | 106 | 0.0 | 0.0 | 0.00 | 0.00 | 0.00 | 35 | 1021.2 |
| 20260506153108 | 11 | 106 | 0.0 | 1.6 | 0.00 | 0.00 | 0.00 | 36 | 1021.2 |
| 20260506151543 | 11 | 106 | 0.0 | 0.0 | 0.00 | 0.00 | 0.00 | 39 | 1021.2 |
| 20260506150019 | 11 | 106 | 0.0 | 0.0 | 0.00 | 0.00 | 0.00 | 41 | 1021.3 |
| 20260506144556 | 11 | 106 | 0.0 | 0.0 | 0.00 | 0.00 | 0.00 | 43 | 1021.2 |
| 20260506143009 | 11 | 106 | 0.0 | 0.0 | 0.00 | 0.00 | 0.00 | 45 | 1021.1 |
| 20260506141534 | 11 | 106 | 0.0 | 0.0 | 0.00 | 0.00 | 0.00 | 46 | 1020.9 |
| 20260506140111 | 11 | 106 | 0.0 | 0.0 | 0.00 | 0.00 | 0.00 | 48 | 1020.7 |
| 20260506134538 | 11 | 106 | 0.0 | 0.0 | 0.00 | 0.00 | 0.00 | 50 | 1020.6 |
| 20260506133102 | 11 | 106 | 0.0 | 0.0 | 0.00 | 0.00 | 0.00 | 51 | 1020.6 |
| 20260506131543 | 11 | 106 | 0.0 | 0.0 | 0.00 | 0.00 | 0.00 | 49 | 1020.4 |
| 20260506130027 | 11 | 106 | 0.0 | 0.0 | 0.00 | 0.00 | 0.00 | 48 | 1020.3 |
| 20260506124501 | 11 | 106 | 0.0 | 0.0 | 0.00 | 0.00 | 0.00 | 46 | 1020.2 |
| 20260506123050 | 11 | 106 | 0.0 | 0.0 | 0.00 | 0.00 | 0.00 | 46 | 1020.2 |
| 20260506121508 | 11 | 106 | 0.0 | 0.0 | 0.00 | 0.00 | 0.00 | 46 | 1020.0 |
| 20260506120033 | 11 | 106 | 0.0 | 0.0 | 0.00 | 0.00 | 0.00 | 46 | 1020.0 |
| 20260506114533 | 11 | 106 | 0.0 | 0.0 | 0.00 | 0.00 | 0.00 | 47 | 1020.0 |
| 20260506113042 | 11 | 106 | 0.0 | 0.0 | 0.00 | 0.00 | 0.00 | 47 | 1019.9 |
| 20260506111511 | 11 | 106 | 0.0 | 0.0 | 0.00 | 0.00 | 0.00 | 47 | 1019.7 |
| 20260506110056 | 11 | 106 | 0.0 | 0.0 | 0.00 | 0.00 | 0.00 | 47 | 1019.6 |
| 20260506104537 | 11 | 106 | 0.0 | 0.0 | 0.00 | 0.00 | 0.00 | 47 | 1019.5 |
| 20260506103005 | 11 | 106 | 0.0 | 0.0 | 0.00 | 0.00 | 0.00 | 46 | 1019.5 |
| 20260506101531 | 11 | 106 | 0.0 | 0.0 | 0.00 | 0.00 | 0.00 | 46 | 1019.5 |
| 20260506100105 | 11 | 106 | 0.0 | 0.0 | 0.00 | 0.00 | 0.00 | 46 | 1019.5 |
| 20260506094520 | 11 | 106 | 0.0 | 0.0 | 0.00 | 0.00 | 0.00 | 47 | 1019.4 |
| 20260506093042 | 11 | 106 | 0.0 | 0.0 | 0.00 | 0.00 | 0.00 | 47 | 1019.4 |
| 20260506091556 | 11 | 106 | 0.0 | 0.0 | 0.00 | 0.05 | 0.00 | 49 | 1019.5 |
| 20260506090033 | 10 | 106 | 0.0 | 0.0 | 0.00 | 0.05 | 0.00 | 53 | 1019.5 |
| 20260506084600 | 10 | 106 | 0.0 | 0.0 | 0.00 | 0.05 | 0.00 | 56 | 1019.4 |
| 20260506083009 | 10 | 106 | 0.0 | 3.2 | 0.00 | 0.05 | 0.00 | 59 | 1019.4 |
| 20260506081545 | 10 | 106 | 0.0 | 0.0 | 0.00 | 0.18 | 0.00 | 62 | 1019.5 |
| 20260506073110 | 11 | 107 | 0.0 | 0.0 | 0.00 | 0.18 | 0.00 | 71 | 1019.3 |
| 20260506071552 | 11 | 107 | 0.0 | 0.0 | 0.00 | 0.28 | 0.18 | 72 | 1019.1 |
| 20260506061518 | 11 | 112 | 0.0 | 6.4 | 0.00 | 0.30 | 0.18 | 72 | 1018.6 |
| 20260506044511 | 12 | 95 | 0.0 | 8.0 | 0.00 | 0.36 | 0.18 | 76 | 1018.1 |
| 20260506043039 | 13 | 90 | 4.8 | 8.0 | 0.00 | 0.36 | 0.18 | 76 | 1017.7 |
| 20260506041512 | 13 | 86 | 0.0 | 8.0 | 0.00 | 0.36 | 0.18 | 76 | 1017.6 |
| 20260506040041 | 13 | 90 | 0.0 | 8.0 | 0.00 | 0.36 | 0.18 | 77 | 1017.5 |
| 20260506034504 | 13 | 90 | 4.8 | 12.9 | 0.00 | 0.36 | 0.18 | 77 | 1017.3 |
| 20260506033045 | 13 | 80 | 1.6 | 12.9 | 0.00 | 0.36 | 0.18 | 76 | 1017.1 |
| 20260506031530 | 14 | 103 | 0.0 | 8.0 | 0.00 | 0.36 | 0.18 | 76 | 1016.8 |
| 20260506030125 | 14 | 109 | 1.6 | 11.3 | 0.00 | 0.36 | 0.18 | 76 | 1016.7 |
| 20260506024530 | 14 | 94 | 4.8 | 14.5 | 0.00 | 0.36 | 0.18 | 75 | 1016.6 |
| 20260506023007 | 14 | 128 | 0.0 | 12.9 | 0.00 | 0.36 | 0.18 | 75 | 1016.5 |
| 20260506021527 | 15 | 72 | 1.6 | 16.1 | 0.00 | 0.36 | 0.18 | 74 | 1016.3 |
| 20260506020110 | 15 | 78 | 4.8 | 17.7 | 0.00 | 0.36 | 0.18 | 74 | 1016.1 |
| 20260506014612 | 16 | 306 | 3.2 | 16.1 | 0.00 | 0.36 | 0.18 | 72 | 1016.1 |
| 20260506013045 | 16 | 142 | 4.8 | 14.5 | 0.00 | 0.36 | 0.18 | 72 | 1015.9 |
| 20260506011537 | 16 | 90 | 3.2 | 16.1 | 0.00 | 0.36 | 0.18 | 71 | 1016.1 |
| 20260506010006 | 17 | 47 | 0.0 | 6.4 | 0.00 | 0.36 | 0.18 | 72 | 1016.0 |
| 20260506004547 | 16 | 184 | 0.0 | 9.7 | 0.00 | 0.36 | 0.18 | 75 | 1015.8 |
| 20260506003011 | 15 | 105 | 3.2 | 11.3 | 0.00 | 0.36 | 0.18 | 75 | 1015.7 |
| 20260506001531 | 15 | 66 | 1.6 | 12.9 | 0.00 | 0.36 | 0.18 | 75 | 1015.8 |
| 20260506000022 | 15 | 49 | 1.6 | 14.5 | 0.00 | 0.36 | 0.18 | 75 | 1015.6 |
| 20260505234610 | 16 | 84 | 1.6 | 14.5 | 0.00 | 0.36 | 0.18 | 75 | 1015.8 |
| 20260505233045 | 16 | 82 | 3.2 | 12.9 | 0.00 | 0.36 | 0.18 | 75 | 1015.7 |
| 20260505231528 | 16 | 95 | 1.6 | 11.3 | 0.00 | 0.36 | 0.18 | 75 | 1015.8 |
| 20260505230106 | 15 | 175 | 0.0 | 0.0 | 0.00 | 0.36 | 0.18 | 75 | 1015.8 |
| 20260505224543 | 15 | 225 | 0.0 | 8.0 | 0.00 | 0.36 | 0.18 | 75 | 1015.8 |
| 20260505223111 | 15 | 134 | 1.6 | 11.3 | 0.00 | 0.36 | 0.18 | 75 | 1015.8 |
| 20260505221541 | 15 | 113 | 0.0 | 8.0 | 0.00 | 0.36 | 0.18 | 76 | 1015.9 |
| 20260505220027 | 15 | 325 | 0.0 | 8.0 | 0.00 | 0.36 | 0.18 | 76 | 1015.9 |
| 20260505214611 | 15 | 100 | 0.0 | 8.0 | 0.00 | 0.36 | 0.18 | 75 | 1016.0 |
| 20260505213045 | 15 | 119 | 0.0 | 9.7 | 0.00 | 0.36 | 0.18 | 76 | 1016.1 |
| 20260505211525 | 15 | 86 | 1.6 | 9.7 | 0.00 | 0.36 | 0.18 | 76 | 1016.2 |
| 20260505210008 | 15 | 71 | 0.0 | 6.4 | 0.00 | 0.36 | 0.18 | 75 | 1016.1 |
| 20260505204544 | 15 | 78 | 0.0 | 8.0 | 0.00 | 0.36 | 0.18 | 76 | 1016.3 |
| 20260505203024 | 15 | 129 | 0.0 | 8.0 | 0.00 | 0.36 | 0.18 | 75 | 1016.3 |
| 20260505201553 | 14 | 90 | 0.0 | 8.0 | 0.00 | 0.36 | 0.18 | 75 | 1016.4 |
| 20260505200019 | 14 | 76 | 3.2 | 14.5 | 0.00 | 0.36 | 0.18 | 75 | 1016.5 |
| 20260505194549 | 15 | 95 | 1.6 | 12.9 | 0.00 | 0.36 | 0.18 | 75 | 1016.4 |
| 20260505193018 | 15 | 32 | 0.0 | 0.0 | 0.00 | 0.36 | 0.18 | 75 | 1016.4 |
| 20260505191608 | 14 | 98 | 0.0 | 9.7 | 0.00 | 0.36 | 0.18 | 75 | 1016.5 |
| 20260505190049 | 14 | 336 | 0.0 | 6.4 | 0.00 | 0.36 | 0.18 | 74 | 1016.4 |
| 20260505184510 | 14 | 54 | 0.0 | 0.0 | 0.00 | 0.36 | 0.18 | 69 | 1016.3 |
| 20260505183030 | 13 | 46 | 0.0 | 3.2 | 0.00 | 0.36 | 0.18 | 71 | 1016.3 |
| 20260505181509 | 13 | 333 | 0.0 | 8.0 | 0.00 | 0.36 | 0.18 | 69 | 1016.3 |